DW8004 Weather Reports


time (UTC)temp
F
wind
direction
speed
knots
gust
knots
rain 1hr
in
rain 24hr
in
rain mn
in
humidity
%
barometer
mb
20260502200052 47 232 0.0 0.0 0.00 0.06 0.06 61 1009.4
20260502194534 48 328 0.0 0.0 0.00 0.06 0.06 61 1009.5
20260502193035 48 230 0.0 0.0 0.00 0.06 0.06 61 1009.7
20260502191506 48 265 0.0 0.0 0.00 0.06 0.06 66 1009.9
20260502190024 47 257 0.0 0.0 0.00 0.06 0.06 68 1010.1
20260502184559 47 308 0.0 0.0 0.00 0.06 0.06 68 1010.1
20260502183032 48 252 0.0 0.0 0.00 0.06 0.06 68 1010.1
20260502181509 47 338 0.0 0.0 0.00 0.06 0.06 71 1010.3
20260502163037 45 298 0.0 0.0 0.00 0.06 0.06 79 1010.8
20260502161509 46 265 0.0 0.0 0.00 0.06 0.06 80 1010.7
20260502160104 45 301 0.0 0.0 0.00 0.06 0.06 81 1010.8
20260502151604 43 312 0.0 0.0 0.00 0.06 0.06 84 1011.0
20260502123118 43 238 0.0 0.0 0.00 0.06 0.06 94 1010.8
20260502121552 43 242 0.0 0.0 0.00 0.06 0.06 94 1010.8
20260502120108 43 242 0.0 0.0 0.00 0.06 0.06 94 1010.7
20260502114559 42 242 0.0 0.0 0.00 0.06 0.06 95 1010.6
20260502113041 42 242 0.0 0.0 0.00 0.06 0.06 95 1010.7
20260502111546 42 242 0.0 0.0 0.00 0.06 0.06 95 1010.8
20260502110016 42 242 0.0 0.0 0.00 0.06 0.06 95 1010.5
20260502104514 41 242 0.0 0.0 0.00 0.06 0.06 95 1010.5
20260502103101 41 242 0.0 0.0 0.00 0.06 0.06 95 1010.7
20260502101605 42 242 0.0 0.0 0.00 0.06 0.06 95 1010.5
20260502100108 42 242 0.0 0.0 0.00 0.06 0.06 94 1010.3
20260502071512 42 242 0.0 0.0 0.01 0.03 0.03 94 1010.8
20260502070113 42 243 0.0 0.0 0.00 0.02 0.02 95 1010.7
20260502064549 41 242 0.0 0.0 0.00 0.02 0.02 94 1010.9
20260502063017 41 243 0.0 0.0 0.00 0.02 0.02 94 1011.0
20260502061524 41 242 0.0 0.0 0.01 0.02 0.02 93 1011.0
20260502060105 42 242 0.0 0.0 0.01 0.02 0.02 93 1011.3
20260502054608 42 242 0.0 0.0 0.02 0.02 0.02 92 1011.4
20260502053043 42 242 0.0 0.0 0.02 0.02 0.02 91 1011.5
20260502051505 41 242 0.0 0.0 0.01 0.01 0.01 89 1012.0
20260502044515 44 243 0.0 0.0 0.00 0.00 0.00 80 1011.5
20260502043013 44 221 0.0 0.0 0.00 0.00 0.00 77 1011.4
20260502041557 44 203 0.0 0.0 0.00 0.00 0.00 78 1011.3
20260502040047 43 192 0.0 0.0 0.00 0.00 0.00 77 1011.4
20260502034508 43 136 0.0 0.0 0.00 0.00 0.00 78 1011.2
20260502033058 43 136 0.0 0.0 0.00 0.00 0.00 78 1011.2
20260502031536 44 136 0.0 0.0 0.00 0.00 0.00 76 1011.1
20260502030018 44 136 0.0 0.0 0.00 0.00 0.00 74 1011.0
20260502024546 44 136 0.0 0.0 0.00 0.00 0.00 74 1011.0
20260502023056 44 136 0.0 0.0 0.00 0.00 0.00 74 1011.2
20260502021536 44 136 0.0 0.0 0.00 0.00 0.00 73 1011.1
20260502020111 46 136 0.0 0.0 0.00 0.00 0.00 68 1011.1
20260502014549 47 136 0.0 0.0 0.00 0.00 0.00 69 1011.1
20260502013040 46 136 0.0 0.0 0.00 0.00 0.00 67 1011.1
20260502011544 46 211 0.0 0.0 0.00 0.00 0.00 68 1011.0
20260502010043 46 205 0.0 0.0 0.00 0.00 0.00 67 1011.0
20260502004540 47 205 0.0 0.0 0.00 0.00 0.00 63 1011.0
20260502003104 47 205 0.0 0.0 0.00 0.00 0.00 66 1010.8
20260502001557 47 205 0.0 0.0 0.00 0.00 0.00 61 1010.6
20260502000034 48 207 0.0 0.0 0.00 0.00 0.00 57 1010.4
20260501234508 48 192 0.0 0.0 0.00 0.00 0.00 58 1010.2
20260501233104 49 246 0.0 0.0 0.00 0.00 0.00 55 1009.8
20260501231601 50 252 0.0 0.0 0.00 0.00 0.00 51 1009.6
20260501230056 50 205 0.0 0.0 0.00 0.00 0.00 48 1009.4
20260501224545 51 313 0.0 0.0 0.00 0.00 0.00 45 1009.3
20260501223046 52 250 0.0 0.0 0.00 0.00 0.00 45 1009.2
20260501221510 53 294 0.0 0.0 0.00 0.00 0.00 44 1009.1
20260501214547 53 223 0.0 0.0 0.00 0.00 0.00 44 1009.1
20260501213037 53 269 0.0 0.0 0.00 0.00 0.00 45 1009.1
20260501211508 52 302 0.0 0.0 0.00 0.00 0.00 48 1009.1
20260501210058 53 292 0.0 0.0 0.00 0.00 0.00 46 1009.3
20260501204555 52 235 0.0 0.0 0.00 0.00 0.00 46 1009.1
20260501203057 53 157 0.0 0.0 0.00 0.00 0.00 46 1009.0
20260501201555 53 316 0.0 0.0 0.00 0.00 0.00 46 1008.9